Miscellaneous Local Product
Issued by NWS Hastings, NE

Home | Current Version | Previous Version | Graphics & Text | Print | Product List | Glossary On
Versions: 1 2 3 4 5 6 7 8 9 10 11 12 13 14 15 16 17 18 19 20 21 22 23 24 25 26 27 28 29 30 31 32 33 34 35 36 37 38 39 40 41 42 43 44 45 46 47 48 49 50
000
AXUS43 KGID 170702
MISGRI

GID CWA HOURLY WEATHER ROUNDUP
NATIONAL WEATHER SERVICE HASTINGS NE
200 AM CDT THU APR 17 2014

NOTE: "FAIR" INDICATES FEW OR NO CLOUDS BELOW 12,000 FEET WITH NO
SIGNIFICANT WEATHER AND/OR OBSTRUCTIONS TO VISIBILITY.

...SOUTH CENTRAL NEBRASKA...

CITY           SKY/WX    TMP DP  RH WIND       PRES   REMARKS
GRAND ISLAND   CLOUDY    33  24  69 N17       30.21R WCI  22
HASTINGS       CLOUDY    33  25  72 N10       30.21R WCI  25
KEARNEY        CLOUDY    32  25  74 N18       30.21R WCI  20
ORD            CLOUDY    30  23  75 NW10      30.23R WCI  21
YORK           CLOUDY    32  27  80 N15G21    30.19R WCI  22
AURORA         CLOUDY    33  26  76 N13G20    30.19R WCI  24
LEXINGTON      CLOUDY    32  26  79 N13       30.20F WCI  23
HOLDREGE       CLOUDY    33  26  76 N14G20    30.20R WCI  23
HEBRON         CLOUDY    36  28  72 N14       30.19S WCI  27

...NEBRASKA PANHANDLE...

CITY           SKY/WX    TMP DP  RH WIND       PRES   REMARKS
CHADRON        CLOUDY    33  29  85 S10       30.18R WCI  25
ALLIANCE       CLOUDY    32  27  81 SE5       30.18R WCI  27
SCOTTSBLUFF    CLOUDY    35  30  82 SE9       30.16S WCI  28
SIDNEY         CLOUDY    32  29  88 SE8       30.16S FOG     WCI  25

...WESTERN AND NORTH CENTRAL NEBRASKA...

CITY           SKY/WX    TMP DP  RH WIND       PRES   REMARKS
VALENTINE      CLOUDY    28  21  75 NE7       30.22R WCI  21
AINSWORTH      CLOUDY    29  23  77 N8        30.21R WCI  22
ONEILL         CLOUDY    31  23  73 N10G17    30.21S WCI  22
BROKEN BOW     CLOUDY    29  24  82 N9        30.22R WCI  20
IMPERIAL       MOCLDY    32  27  81 N13       30.18R HAZE    WCI  22
NORTH PLATTE   CLOUDY    31  24  75 NE8       30.21R WCI  23
MCCOOK         CLOUDY    31  28  89 E5        30.22R WCI  26

...EASTERN NEBRASKA...

CITY           SKY/WX    TMP DP  RH WIND       PRES   REMARKS
NORFOLK        CLOUDY    31  24  75 N17       30.18R WCI  19
SO SIOUX CITY  CLOUDY    33  26  75 NW21      30.18R WCI  21
TEKAMAH        CLOUDY    35  26  69 NW17      30.18R WCI  25
COLUMBUS       CLOUDY    32  21  64 N14       30.20S WCI  22
ALBION         CLOUDY    31  24  74 N12G20    30.20R WCI  22
OMAHA EPPLEY   CLOUDY    35  28  75 NW18G26   30.15R WCI  24
OFFUTT AFB     CLOUDY    36  29  77 N15       30.14R WCI  26
MILLARD        CLOUDY    35  27  72 NW14G20   30.16R WCI  26
LINCOLN        CLOUDY    36  25  64 N21       30.19R WCI  25
NEBRASKA CITY  CLOUDY    36  28  75 N20G26    30.14R WCI  25
BEATRICE       CLOUDY    36  27  69 N16       30.17R WCI  26
FALLS CITY     CLOUDY    38  29  70 NW15G21   30.14R WCI  29

...NORTHERN KANSAS...

CITY           SKY/WX    TMP DP  RH WIND       PRES   REMARKS
GOODLAND       CLOUDY    38  33  82 E12       30.16R WCI  30
HILL CITY      CLOUDY    37  28  70 N10       30.21R WCI  30
PHILLIPSBURG   MOCLDY    36  27  69 N12       30.22R WCI  27
SMITH CENTER   CLOUDY    34  27  75 N9        30.20S WCI  26
BELOIT         CLEAR     37  28  70 N13       30.18R WCI  29
HAYS           CLOUDY    39  27  60 N18       30.18R WCI  30
RUSSELL        CLOUDY    38  28  67 N18       30.16R WCI  28
CONCORDIA      CLOUDY    36  27  69 N17G23    30.17R WCI  26
SALINA         MOCLDY    41  28  60 N15       30.19R
TOPEKA         CLOUDY    41  30  65 N9        30.15R



USA.gov is the U.S. government's official web portal to all federal, state and local government web resources and services.